| time (UTC) | temp C | wind direction | speed KPH | gust KPH | rain 1hr cm | rain 24hr cm | rain mn cm | humidity % | barometer mb |
| 20260505140358 | 3 | 121 | 0.0 | 1.6 | 0.00 | 0.00 | 0.00 | 94 | 1298.2 |
| 20260505124811 | 4 | 108 | 1.6 | 1.6 | 0.00 | 0.00 | 0.00 | 93 | 1297.3 |
| 20260505124308 | 5 | 132 | 3.2 | 3.2 | 0.00 | 0.00 | 0.00 | 92 | 1297.0 |
| 20260505123804 | 5 | 126 | 4.8 | 8.0 | 0.00 | 0.00 | 0.00 | 92 | 1296.8 |
| 20260505123301 | 5 | 102 | 3.2 | 3.2 | 0.00 | 0.00 | 0.00 | 92 | 1297.1 |
| 20260505122757 | 5 | 122 | 6.4 | 9.7 | 0.00 | 0.00 | 0.00 | 91 | 1297.3 |
| 20260505122255 | 5 | 114 | 4.8 | 8.0 | 0.00 | 0.00 | 0.00 | 90 | 1296.7 |
| 20260505121751 | 5 | 107 | 4.8 | 4.8 | 0.00 | 0.00 | 0.00 | 89 | 1296.5 |
| 20260505121248 | 5 | 119 | 4.8 | 4.8 | 0.00 | 0.00 | 0.00 | 89 | 1296.3 |
| 20260505120744 | 5 | 108 | 3.2 | 3.2 | 0.00 | 0.00 | 0.00 | 89 | 1296.7 |
| 20260505120240 | 5 | 106 | 1.6 | 1.6 | 0.00 | 0.00 | 0.00 | 88 | 1296.5 |
| 20260505115739 | 5 | 110 | 4.8 | 4.8 | 0.00 | 0.00 | 0.00 | 88 | 1296.4 |
| 20260505115237 | 5 | 116 | 1.6 | 1.6 | 0.00 | 0.00 | 0.00 | 87 | 1296.4 |
| 20260505114734 | 5 | 110 | 0.0 | 0.0 | 0.00 | 0.00 | 0.00 | 87 | 1296.8 |
| 20260505114230 | 5 | 130 | 1.6 | 1.6 | 0.00 | 0.00 | 0.00 | 88 | 1296.7 |
| 20260505113727 | 5 | 105 | 0.0 | 0.0 | 0.00 | 0.00 | 0.00 | 88 | 1296.4 |
| 20260505113223 | 5 | 98 | 4.8 | 4.8 | 0.00 | 0.00 | 0.00 | 88 | 1296.3 |
| 20260505112720 | 5 | 114 | 1.6 | 3.2 | 0.00 | 0.00 | 0.00 | 89 | 1296.2 |
| 20260505112218 | 5 | 98 | 0.0 | 1.6 | 0.00 | 0.00 | 0.00 | 88 | 1296.3 |
| 20260505111717 | 5 | 96 | 4.8 | 8.0 | 0.00 | 0.00 | 0.00 | 89 | 1296.4 |
| 20260505111214 | 5 | 104 | 3.2 | 4.8 | 0.00 | 0.00 | 0.00 | 89 | 1296.4 |
| 20260505110709 | 5 | 134 | 1.6 | 1.6 | 0.00 | 0.00 | 0.00 | 91 | 1296.7 |
| 20260505110207 | 5 | 103 | 3.2 | 3.2 | 0.00 | 0.00 | 0.00 | 92 | 1296.7 |
| 20260505102142 | 5 | 124 | 1.6 | 3.2 | 0.00 | 0.00 | 0.00 | 97 | 1296.4 |
| 20260505101641 | 5 | 105 | 3.2 | 3.2 | 0.00 | 0.00 | 0.00 | 97 | 1296.4 |
| 20260505101137 | 5 | 107 | 0.0 | 0.0 | 0.00 | 0.00 | 0.00 | 97 | 1296.3 |
| 20260505100633 | 5 | 103 | 1.6 | 1.6 | 0.00 | 0.00 | 0.00 | 97 | 1296.2 |
| 20260505100130 | 5 | 98 | 0.0 | 0.0 | 0.00 | 0.00 | 0.00 | 96 | 1296.2 |
| 20260505095626 | 5 | 95 | 0.0 | 0.0 | 0.00 | 0.00 | 0.00 | 96 | 1296.4 |
| 20260505095123 | 5 | 110 | 0.0 | 0.0 | 0.00 | 0.00 | 0.00 | 96 | 1296.3 |
| 20260505094620 | 5 | 92 | 1.6 | 3.2 | 0.00 | 0.00 | 0.00 | 96 | 1296.4 |
| 20260505094116 | 5 | 107 | 0.0 | 0.0 | 0.00 | 0.00 | 0.00 | 96 | 1296.0 |
| 20260505093612 | 5 | 101 | 0.0 | 0.0 | 0.00 | 0.00 | 0.00 | 95 | 1295.9 |
| 20260505093110 | 5 | 97 | 0.0 | 0.0 | 0.00 | 0.00 | 0.00 | 95 | 1295.8 |
| 20260505092607 | 5 | 96 | 0.0 | 0.0 | 0.00 | 0.00 | 0.00 | 95 | 1295.8 |
| 20260505092106 | 5 | 100 | 0.0 | 0.0 | 0.00 | 0.00 | 0.00 | 95 | 1295.9 |
| 20260505091602 | 5 | 121 | 0.0 | 1.6 | 0.00 | 0.00 | 0.00 | 95 | 1296.2 |
| 20260505091100 | 5 | 109 | 0.0 | 0.0 | 0.00 | 0.00 | 0.00 | 95 | 1296.4 |
| 20260505090558 | 5 | 107 | 0.0 | 0.0 | 0.00 | 0.00 | 0.00 | 95 | 1296.3 |
| 20260505090056 | 5 | 135 | 0.0 | 0.0 | 0.00 | 0.00 | 0.00 | 95 | 1296.2 |
| 20260505085553 | 5 | 112 | 0.0 | 0.0 | 0.00 | 0.00 | 0.00 | 96 | 1296.3 |
| 20260505085051 | 5 | 103 | 0.0 | 1.6 | 0.00 | 0.00 | 0.00 | 97 | 1296.5 |
| 20260505084549 | 6 | 81 | 0.0 | 0.0 | 0.00 | 0.00 | 0.00 | 97 | 1296.5 |
| 20260505084047 | 6 | 94 | 0.0 | 0.0 | 0.00 | 0.00 | 0.00 | 97 | 1296.9 |
| 20260505083543 | 6 | 91 | 0.0 | 0.0 | 0.00 | 0.00 | 0.00 | 97 | 1297.1 |
| 20260505083040 | 6 | 95 | 0.0 | 0.0 | 0.00 | 0.00 | 0.00 | 97 | 1296.8 |
| 20260505082536 | 6 | 76 | 0.0 | 0.0 | 0.00 | 0.00 | 0.00 | 97 | 1296.8 |
| 20260505082033 | 6 | 93 | 0.0 | 0.0 | 0.00 | 0.00 | 0.00 | 98 | 1297.4 |
| 20260505081529 | 6 | 102 | 0.0 | 0.0 | 0.00 | 0.00 | 0.00 | 98 | 1297.1 |
| 20260505081027 | 6 | 70 | 0.0 | 1.6 | 0.00 | 0.00 | 0.00 | 97 | 1296.8 |
| 20260505080523 | 6 | 50 | 3.2 | 3.2 | 0.00 | 0.00 | 0.00 | 97 | 1296.9 |
| 20260505080020 | 6 | 88 | 1.6 | 1.6 | 0.00 | 0.00 | 0.00 | 97 | 1297.3 |
| 20260505075515 | 6 | 90 | 1.6 | 1.6 | 0.00 | 0.00 | 0.00 | 97 | 1297.0 |
| 20260505075012 | 6 | 74 | 1.6 | 1.6 | 0.00 | 0.00 | 0.00 | 97 | 1297.0 |
| 20260505074510 | 6 | 80 | 0.0 | 0.0 | 0.00 | 0.00 | 0.00 | 97 | 1297.0 |
| 20260505074007 | 6 | 109 | 1.6 | 1.6 | 0.00 | 0.00 | 0.00 | 97 | 1297.3 |
| 20260505073504 | 6 | 70 | 1.6 | 1.6 | 0.00 | 0.00 | 0.00 | 97 | 1297.1 |
| 20260505073002 | 6 | 17 | 1.6 | 1.6 | 0.00 | 0.00 | 0.00 | 97 | 1297.1 |
| 20260505072458 | 6 | 25 | 1.6 | 1.6 | 0.00 | 0.00 | 0.00 | 97 | 1297.0 |
| 20260505071954 | 6 | 68 | 1.6 | 1.6 | 0.00 | 0.00 | 0.00 | 96 | 1297.4 |
| 20260505071449 | 6 | 63 | 3.2 | 3.2 | 0.00 | 0.00 | 0.00 | 96 | 1297.3 |
| 20260505070948 | 6 | 2 | 4.8 | 8.0 | 0.00 | 0.00 | 0.00 | 96 | 1297.4 |
| 20260505070444 | 6 | 288 | 4.8 | 8.0 | 0.00 | 0.00 | 0.00 | 96 | 1297.5 |
| 20260505065940 | 6 | 104 | 1.6 | 1.6 | 0.00 | 0.00 | 0.00 | 96 | 1297.3 |
| 20260505065437 | 6 | 93 | 1.6 | 1.6 | 0.00 | 0.00 | 0.00 | 95 | 1297.5 |
| 20260505064933 | 6 | 1 | 6.4 | 8.0 | 0.00 | 0.00 | 0.00 | 95 | 1297.3 |
| 20260505064431 | 6 | 57 | 1.6 | 1.6 | 0.00 | 0.00 | 0.00 | 95 | 1297.1 |
| 20260505063929 | 6 | 1 | 4.8 | 4.8 | 0.00 | 0.00 | 0.00 | 95 | 1297.4 |
| 20260505063425 | 6 | 27 | 1.6 | 3.2 | 0.00 | 0.00 | 0.00 | 95 | 1297.4 |
| 20260505062922 | 6 | 17 | 1.6 | 3.2 | 0.00 | 0.00 | 0.00 | 95 | 1297.4 |
| 20260505062419 | 6 | 74 | 1.6 | 1.6 | 0.00 | 0.00 | 0.00 | 94 | 1297.0 |
| 20260505061915 | 6 | 94 | 1.6 | 3.2 | 0.00 | 0.00 | 0.00 | 94 | 1297.1 |
| 20260505061414 | 6 | 26 | 6.4 | 8.0 | 0.00 | 0.00 | 0.00 | 93 | 1297.0 |
| 20260505060911 | 6 | 95 | 1.6 | 1.6 | 0.00 | 0.00 | 0.00 | 92 | 1297.4 |
| 20260505060408 | 6 | 340 | 4.8 | 4.8 | 0.00 | 0.00 | 0.00 | 92 | 1297.5 |
| 20260505055904 | 6 | 17 | 3.2 | 8.0 | 0.13 | 0.10 | 0.10 | 91 | 1297.8 |
| 20260505055400 | 6 | 56 | 1.6 | 3.2 | 0.13 | 0.10 | 0.10 | 90 | 1297.9 |
| 20260505054857 | 7 | 36 | 1.6 | 3.2 | 0.00 | 0.08 | 0.08 | 89 | 1297.4 |
| 20260505054354 | 7 | 36 | 3.2 | 3.2 | 0.00 | 0.08 | 0.08 | 88 | 1297.9 |
| 20260505053852 | 7 | 36 | 4.8 | 4.8 | 0.18 | 0.08 | 0.08 | 87 | 1297.6 |
| 20260505053349 | 7 | 346 | 6.4 | 8.0 | 0.18 | 0.08 | 0.08 | 86 | 1297.6 |
| 20260505052846 | 7 | 108 | 4.8 | 4.8 | 0.00 | 0.05 | 0.05 | 84 | 1297.4 |
| 20260505052343 | 7 | 21 | 3.2 | 4.8 | 0.00 | 0.05 | 0.05 | 81 | 1297.8 |
| 20260505051840 | 7 | 50 | 1.6 | 1.6 | 0.00 | 0.05 | 0.05 | 82 | 1297.6 |
| 20260505051337 | 7 | 103 | 0.0 | 0.0 | 0.00 | 0.05 | 0.05 | 82 | 1297.8 |
| 20260505050835 | 7 | 95 | 0.0 | 0.0 | 0.00 | 0.05 | 0.05 | 82 | 1297.6 |
| 20260505050334 | 7 | 96 | 0.0 | 0.0 | 0.00 | 0.05 | 0.05 | 81 | 1297.5 |
| 20260505041301 | 7 | 8 | 8.0 | 9.7 | 0.00 | 0.05 | 0.05 | 80 | 1296.7 |
| 20260505040758 | 7 | 314 | 8.0 | 11.3 | 0.00 | 0.05 | 0.05 | 82 | 1296.7 |
| 20260505040255 | 7 | 43 | 8.0 | 11.3 | 0.00 | 0.05 | 0.05 | 82 | 1296.8 |
| 20260505035752 | 7 | 14 | 6.4 | 8.0 | 0.00 | 0.05 | 0.05 | 82 | 1296.4 |
| 20260505035248 | 7 | 326 | 6.4 | 9.7 | 0.00 | 0.05 | 0.05 | 82 | 1296.4 |
| 20260505034745 | 7 | 347 | 8.0 | 9.7 | 0.00 | 0.05 | 0.05 | 81 | 1296.5 |
| 20260505034242 | 7 | 349 | 6.4 | 9.7 | 0.00 | 0.05 | 0.05 | 80 | 1296.7 |
| 20260505033738 | 7 | 244 | 11.3 | 12.9 | 0.00 | 0.05 | 0.05 | 82 | 1296.8 |
| 20260505033236 | 7 | 1 | 9.7 | 11.3 | 0.00 | 0.05 | 0.05 | 84 | 1296.5 |
| 20260505032734 | 7 | 15 | 6.4 | 9.7 | 0.00 | 0.05 | 0.05 | 84 | 1296.7 |
| 20260505032229 | 7 | 92 | 4.8 | 11.3 | 0.00 | 0.05 | 0.05 | 83 | 1296.8 |
| 20260505031727 | 8 | 315 | 4.8 | 8.0 | 0.00 | 0.05 | 0.05 | 80 | 1296.5 |
| 20260505031223 | 8 | 328 | 6.4 | 8.0 | 0.00 | 0.05 | 0.05 | 80 | 1296.3 |
| 20260505030721 | 8 | 297 | 9.7 | 12.9 | 0.00 | 0.05 | 0.05 | 80 | 1296.2 |
| 20260505030217 | 8 | 353 | 8.0 | 11.3 | 0.00 | 0.05 | 0.05 | 79 | 1296.3 |
| 20260505025712 | 8 | 289 | 11.3 | 12.9 | 0.00 | 0.05 | 0.05 | 80 | 1296.2 |
| 20260505025211 | 8 | 330 | 16.1 | 17.7 | 0.00 | 0.05 | 0.05 | 80 | 1296.3 |
| 20260505024709 | 8 | 296 | 9.7 | 11.3 | 0.00 | 0.05 | 0.05 | 81 | 1296.9 |
| 20260505024205 | 8 | 342 | 8.0 | 11.3 | 0.00 | 0.05 | 0.05 | 81 | 1296.5 |
| 20260505023703 | 8 | 2 | 9.7 | 12.9 | 0.00 | 0.05 | 0.05 | 81 | 1296.5 |
| 20260505023200 | 8 | 348 | 6.4 | 8.0 | 0.00 | 0.05 | 0.05 | 81 | 1296.5 |
| 20260505022658 | 8 | 61 | 6.4 | 8.0 | 0.00 | 0.05 | 0.05 | 81 | 1296.5 |
| 20260505022154 | 8 | 86 | 1.6 | 3.2 | 0.00 | 0.05 | 0.05 | 82 | 1296.3 |
| 20260505021651 | 8 | 62 | 4.8 | 4.8 | 0.00 | 0.05 | 0.05 | 81 | 1296.2 |
| 20260505021148 | 8 | 82 | 3.2 | 3.2 | 0.00 | 0.05 | 0.05 | 81 | 1296.3 |
| 20260505020643 | 8 | 38 | 3.2 | 3.2 | 0.00 | 0.05 | 0.05 | 82 | 1296.9 |
| 20260505020139 | 7 | 62 | 4.8 | 8.0 | 0.00 | 0.05 | 0.05 | 81 | 1296.8 |
| 20260505015637 | 7 | 12 | 6.4 | 9.7 | 0.00 | 0.05 | 0.05 | 82 | 1296.7 |
| 20260505015133 | 8 | 30 | 11.3 | 12.9 | 0.00 | 0.05 | 0.05 | 82 | 1296.7 |
| 20260505014630 | 9 | 341 | 12.9 | 16.1 | 0.18 | 0.05 | 0.05 | 76 | 1296.5 |
| 20260505014127 | 9 | 35 | 1.6 | 3.2 | 0.18 | 0.05 | 0.05 | 75 | 1296.3 |
| 20260505013625 | 10 | 14 | 6.4 | 8.0 | 0.13 | 0.03 | 0.03 | 69 | 1296.3 |
| 20260505013122 | 10 | 47 | 3.2 | 4.8 | 0.00 | 0.00 | 0.00 | 69 | 1296.5 |
| 20260505012620 | 10 | 40 | 1.6 | 1.6 | 0.00 | 0.00 | 0.00 | 71 | 1296.3 |
| 20260505012116 | 10 | 111 | 0.0 | 1.6 | 0.00 | 0.00 | 0.00 | 68 | 1296.5 |
| 20260505011612 | 11 | 334 | 4.8 | 8.0 | 0.00 | 0.00 | 0.00 | 63 | 1296.3 |
| 20260505011110 | 11 | 338 | 9.7 | 12.9 | 0.00 | 0.00 | 0.00 | 58 | 1296.2 |
| 20260505010605 | 12 | 313 | 9.7 | 14.5 | 0.00 | 0.00 | 0.00 | 56 | 1296.0 |
| 20260505005558 | 12 | 275 | 4.8 | 4.8 | 0.00 | 0.00 | 0.00 | 53 | 1295.7 |
| 20260505005055 | 12 | 260 | 6.4 | 9.7 | 0.00 | 0.00 | 0.00 | 52 | 1295.4 |
| 20260505004552 | 12 | 27 | 9.7 | 11.3 | 0.00 | 0.00 | 0.00 | 51 | 1295.2 |
| 20260505004049 | 12 | 335 | 6.4 | 8.0 | 0.00 | 0.00 | 0.00 | 50 | 1295.2 |
| 20260505003546 | 13 | 21 | 1.6 | 3.2 | 0.00 | 0.00 | 0.00 | 50 | 1294.8 |
| 20260505003043 | 13 | 356 | 14.5 | 20.9 | 0.00 | 0.00 | 0.00 | 48 | 1294.7 |
| 20260505002538 | 13 | 319 | 9.7 | 14.5 | 0.00 | 0.00 | 0.00 | 49 | 1294.6 |
| 20260505002037 | 13 | 21 | 6.4 | 9.7 | 0.00 | 0.00 | 0.00 | 48 | 1294.0 |
| 20260505001534 | 13 | 326 | 8.0 | 9.7 | 0.00 | 0.00 | 0.00 | 47 | 1294.3 |
| 20260505001031 | 13 | 2 | 4.8 | 8.0 | 0.00 | 0.00 | 0.00 | 47 | 1294.1 |
| 20260505000529 | 14 | 54 | 4.8 | 8.0 | 0.00 | 0.00 | 0.00 | 47 | 1294.2 |
| 20260505000026 | 15 | 323 | 11.3 | 14.5 | 0.00 | 0.00 | 0.00 | 45 | 1294.1 |
| 20260504235523 | 15 | 8 | 12.9 | 16.1 | 0.00 | 0.00 | 0.00 | 44 | 1294.5 |
| 20260504235019 | 15 | 35 | 6.4 | 9.7 | 0.00 | 0.00 | 0.00 | 45 | 1294.0 |
| 20260504234516 | 15 | 341 | 14.5 | 16.1 | 0.00 | 0.00 | 0.00 | 44 | 1294.1 |
| 20260504234013 | 15 | 19 | 8.0 | 9.7 | 0.00 | 0.00 | 0.00 | 45 | 1294.1 |
| 20260504233508 | 15 | 58 | 8.0 | 11.3 | 0.00 | 0.00 | 0.00 | 45 | 1294.2 |
| 20260504233006 | 16 | 42 | 12.9 | 16.1 | 0.00 | 0.00 | 0.00 | 44 | 1294.1 |
| 20260504232503 | 16 | 1 | 4.8 | 4.8 | 0.00 | 0.00 | 0.00 | 43 | 1294.2 |
| 20260504232000 | 16 | 41 | 4.8 | 4.8 | 0.00 | 0.00 | 0.00 | 42 | 1294.2 |
| 20260504231456 | 17 | 324 | 3.2 | 3.2 | 0.00 | 0.00 | 0.00 | 44 | 1294.1 |
| 20260504230953 | 16 | 111 | 0.0 | 1.6 | 0.00 | 0.00 | 0.00 | 45 | 1294.0 |
| 20260504230449 | 16 | 337 | 1.6 | 3.2 | 0.00 | 0.00 | 0.00 | 45 | 1294.5 |
| 20260504225948 | 15 | 118 | 1.6 | 3.2 | 0.00 | 0.00 | 0.00 | 45 | 1294.3 |
| 20260504225445 | 15 | 155 | 8.0 | 11.3 | 0.00 | 0.00 | 0.00 | 45 | 1293.8 |
| 20260504224942 | 15 | 129 | 4.8 | 8.0 | 0.00 | 0.00 | 0.00 | 46 | 1294.1 |
| 20260504224438 | 15 | 88 | 4.8 | 4.8 | 0.00 | 0.00 | 0.00 | 45 | 1294.5 |
| 20260504223936 | 15 | 109 | 1.6 | 1.6 | 0.00 | 0.00 | 0.00 | 45 | 1294.3 |
| 20260504223431 | 15 | 170 | 4.8 | 8.0 | 0.00 | 0.00 | 0.00 | 44 | 1294.3 |
| 20260504222927 | 15 | 105 | 3.2 | 4.8 | 0.00 | 0.00 | 0.00 | 44 | 1294.3 |
| 20260504222425 | 15 | 105 | 8.0 | 9.7 | 0.00 | 0.00 | 0.00 | 44 | 1294.3 |
| 20260504221923 | 15 | 65 | 3.2 | 3.2 | 0.00 | 0.00 | 0.00 | 43 | 1294.5 |
| 20260504221419 | 16 | 120 | 8.0 | 11.3 | 0.00 | 0.00 | 0.00 | 43 | 1294.3 |
| 20260504220916 | 16 | 100 | 4.8 | 4.8 | 0.00 | 0.00 | 0.00 | 42 | 1294.0 |
| 20260504220413 | 16 | 186 | 8.0 | 11.3 | 0.00 | 0.00 | 0.00 | 42 | 1294.2 |
| 20260504215910 | 16 | 298 | 8.0 | 11.3 | 0.00 | 0.00 | 0.00 | 41 | 1294.2 |
| 20260504215407 | 16 | 2 | 3.2 | 12.9 | 0.00 | 0.00 | 0.00 | 41 | 1294.0 |
| 20260504214903 | 16 | 349 | 11.3 | 11.3 | 0.00 | 0.00 | 0.00 | 39 | 1294.0 |
| 20260504214400 | 16 | 23 | 4.8 | 8.0 | 0.00 | 0.00 | 0.00 | 41 | 1294.2 |
| 20260504213857 | 16 | 342 | 4.8 | 8.0 | 0.00 | 0.00 | 0.00 | 40 | 1293.8 |
| 20260504213352 | 16 | 301 | 9.7 | 12.9 | 0.00 | 0.00 | 0.00 | 39 | 1294.2 |
| 20260504212850 | 17 | 48 | 3.2 | 3.2 | 0.00 | 0.00 | 0.00 | 36 | 1293.6 |
| 20260504212346 | 17 | 3 | 8.0 | 9.7 | 0.00 | 0.00 | 0.00 | 35 | 1293.8 |
| 20260504211844 | 17 | 347 | 16.1 | 20.9 | 0.00 | 0.00 | 0.00 | 34 | 1293.6 |
| 20260504211339 | 17 | 19 | 6.4 | 11.3 | 0.00 | 0.00 | 0.00 | 35 | 1293.7 |
| 20260504210837 | 17 | 354 | 8.0 | 9.7 | 0.00 | 0.00 | 0.00 | 35 | 1293.4 |
| 20260504210334 | 18 | 357 | 11.3 | 16.1 | 0.00 | 0.00 | 0.00 | 34 | 1293.6 |
| 20260504205831 | 18 | 167 | 6.4 | 9.7 | 0.00 | 0.00 | 0.00 | 35 | 1293.4 |
| 20260504205329 | 18 | 320 | 4.8 | 4.8 | 0.00 | 0.00 | 0.00 | 34 | 1293.4 |
| 20260504204827 | 18 | 200 | 6.4 | 12.9 | 0.00 | 0.00 | 0.00 | 32 | 1293.6 |
| 20260504204325 | 18 | 156 | 1.6 | 1.6 | 0.00 | 0.00 | 0.00 | 36 | 1293.6 |
| 20260504203824 | 18 | 270 | 3.2 | 4.8 | 0.00 | 0.00 | 0.00 | 33 | 1293.7 |
| 20260504203321 | 18 | 262 | 4.8 | 8.0 | 0.00 | 0.00 | 0.00 | 34 | 1294.0 |
| 20260504202816 | 18 | 236 | 6.4 | 8.0 | 0.00 | 0.00 | 0.00 | 32 | 1294.3 |
| 20260504202314 | 18 | 326 | 3.2 | 4.8 | 0.00 | 0.00 | 0.00 | 35 | 1294.3 |
| 20260504201810 | 17 | 288 | 1.6 | 3.2 | 0.00 | 0.00 | 0.00 | 35 | 1294.0 |
| 20260504201308 | 17 | 221 | 6.4 | 8.0 | 0.00 | 0.00 | 0.00 | 35 | 1294.1 |
| 20260504200805 | 17 | 262 | 9.7 | 14.5 | 0.00 | 0.00 | 0.00 | 34 | 1294.1 |
| 20260504200301 | 17 | 309 | 19.3 | 25.7 | 0.00 | 0.00 | 0.00 | 33 | 1294.3 |
| 20260504195757 | 18 | 329 | 8.0 | 11.3 | 0.00 | 0.00 | 0.00 | 34 | 1294.5 |
| 20260504195253 | 17 | 263 | 8.0 | 11.3 | 0.00 | 0.00 | 0.00 | 34 | 1294.7 |
| 20260504194751 | 17 | 256 | 9.7 | 16.1 | 0.00 | 0.00 | 0.00 | 34 | 1294.3 |
| 20260504194247 | 17 | 318 | 11.3 | 16.1 | 0.00 | 0.00 | 0.00 | 32 | 1294.5 |
| 20260504193743 | 17 | 96 | 0.0 | 0.0 | 0.00 | 0.00 | 0.00 | 28 | 1294.2 |
| 20260504193241 | 18 | 234 | 3.2 | 4.8 | 0.00 | 0.00 | 0.00 | 32 | 1294.3 |
| 20260504192739 | 18 | 201 | 4.8 | 4.8 | 0.00 | 0.00 | 0.00 | 29 | 1294.6 |
| 20260504192237 | 18 | 359 | 1.6 | 1.6 | 0.00 | 0.00 | 0.00 | 30 | 1294.2 |
| 20260504191735 | 19 | 227 | 8.0 | 9.7 | 0.00 | 0.00 | 0.00 | 30 | 1294.6 |
| 20260504191232 | 19 | 312 | 4.8 | 4.8 | 0.00 | 0.00 | 0.00 | 29 | 1294.2 |
| 20260504190727 | 19 | 101 | 0.0 | 0.0 | 0.00 | 0.00 | 0.00 | 31 | 1294.5 |
| 20260504190224 | 18 | 185 | 1.6 | 3.2 | 0.00 | 0.00 | 0.00 | 30 | 1294.6 |
| 20260504185720 | 20 | 112 | 4.8 | 8.0 | 0.00 | 0.00 | 0.00 | 31 | 1295.1 |
| 20260504185217 | 20 | 263 | 4.8 | 8.0 | 0.00 | 0.00 | 0.00 | 33 | 1294.5 |
| 20260504184713 | 20 | 160 | 0.0 | 1.6 | 0.00 | 0.00 | 0.00 | 30 | 1294.8 |
| 20260504184209 | 20 | 87 | 4.8 | 8.0 | 0.00 | 0.00 | 0.00 | 29 | 1294.8 |
| 20260504183705 | 20 | 200 | 3.2 | 4.8 | 0.00 | 0.00 | 0.00 | 32 | 1294.7 |
| 20260504183202 | 20 | 120 | 1.6 | 1.6 | 0.00 | 0.00 | 0.00 | 32 | 1295.2 |
| 20260504182700 | 18 | 128 | 8.0 | 9.7 | 0.00 | 0.00 | 0.00 | 29 | 1295.4 |
| 20260504182157 | 20 | 148 | 1.6 | 1.6 | 0.00 | 0.00 | 0.00 | 33 | 1295.6 |
| 20260504181655 | 18 | 108 | 1.6 | 1.6 | 0.00 | 0.00 | 0.00 | 30 | 1295.3 |
| 20260504181152 | 19 | 271 | 4.8 | 8.0 | 0.00 | 0.00 | 0.00 | 32 | 1295.7 |
| 20260504180651 | 18 | 104 | 4.8 | 8.0 | 0.00 | 0.00 | 0.00 | 32 | 1295.3 |
| 20260504180149 | 19 | 111 | 6.4 | 12.9 | 0.00 | 0.00 | 0.00 | 30 | 1295.6 |
| 20260504175646 | 18 | 81 | 3.2 | 4.8 | 0.00 | 0.00 | 0.00 | 34 | 1295.4 |
| 20260504175143 | 18 | 37 | 1.6 | 1.6 | 0.00 | 0.00 | 0.00 | 32 | 1295.7 |
| 20260504174641 | 18 | 88 | 0.0 | 1.6 | 0.00 | 0.00 | 0.00 | 35 | 1296.0 |
| 20260504174137 | 17 | 205 | 4.8 | 8.0 | 0.00 | 0.00 | 0.00 | 31 | 1296.0 |
| 20260504173635 | 18 | 239 | 6.4 | 9.7 | 0.00 | 0.00 | 0.00 | 31 | 1296.0 |
| 20260504173132 | 17 | 331 | 8.0 | 9.7 | 0.00 | 0.00 | 0.00 | 37 | 1295.9 |
| 20260504172629 | 17 | 296 | 6.4 | 9.7 | 0.00 | 0.00 | 0.00 | 37 | 1295.7 |
| 20260504172125 | 17 | 316 | 8.0 | 11.3 | 0.00 | 0.00 | 0.00 | 37 | 1296.3 |
| 20260504171621 | 17 | 168 | 3.2 | 3.2 | 0.00 | 0.00 | 0.00 | 36 | 1296.2 |
| 20260504171114 | 17 | 273 | 8.0 | 12.9 | 0.00 | 0.00 | 0.00 | 37 | 1296.4 |
| 20260504170609 | 17 | 294 | 8.0 | 9.7 | 0.00 | 0.00 | 0.00 | 38 | 1296.3 |
| 20260504170107 | 17 | 333 | 6.4 | 9.7 | 0.00 | 0.00 | 0.00 | 38 | 1296.5 |
| 20260504150952 | 13 | 15 | 8.0 | 11.3 | 0.00 | 0.00 | 0.00 | 44 | 1297.3 |
| 20260504150449 | 13 | 263 | 6.4 | 9.7 | 0.00 | 0.00 | 0.00 | 45 | 1297.3 |